Temperature
11 11 12 13 15 16 17 19 21 21 21 21 21 22 23 23 23 22 17 17 16 16 16 16 16 16 16 16 16 16 16 16 16 16 16 16 16 16 16 16 16 16 16 16 16 16 16 16 16
10 11 11 13 15 16 17 19 20 20 21 20 20 20 21 21 19 17 17 16 16 16 15 15 16 16 16 16 16 16 16 16 16 16 16 16 16 16 16 16 16 16 16 16 16 16 16 16 16
10 10 12 13 14 16 18 19 20 20 19 19 20 20 20 20 18 17 16 16 16 15 15 16 16 16 16 16 16 16 16 16 16 16 16 16 16 16 17 17 17 17 16 16 16 16 16 16 16
9 10 11 13 14 16 18 19 19 19 19 19 19 19 18 17 17 16 16 16 16 16 15 16 16 16 16 16 16 16 16 16 16 16 16 16 16 16 17 17 17 17 17 16 16 16 16 16 16
9 11 12 12 14 16 18 18 18 18 19 18 18 19 18 16 16 16 16 16 16 16 15 15 16 16 16 16 16 16 16 16 16 16 16 16 17 17 17 17 17 17 17 16 16 16 16 16 16
10 11 12 13 14 16 17 17 17 17 18 18 18 18 18 16 16 16 16 15 16 16 15 15 15 16 16 16 16 16 16 16 16 16 16 16 16 16 17 17 17 17 17 16 16 16 16 16 16
10 11 12 13 14 15 17 16 16 17 17 17 18 18 17 16 16 16 15 15 15 15 15 15 15 15 15 16 16 16 16 16 16 16 16 16 16 16 17 17 17 16 16 16 16 16 16 16 16
9 11 11 13 13 14 16 15 16 16 17 16 16 17 17 16 15 16 15 15 15 15 15 15 15 15 15 15 15 15 15 15 16 16 16 16 16 16 16 16 16 16 16 16 16 16 16 16 15
8 9 11 12 13 14 15 15 15 15 15 15 15 16 16 15 15 15 14 14 15 15 15 14 14 14 14 14 15 15 15 15 15 15 16 16 16 16 16 16 16 16 16 16 16 16 16 15 15
8 9 11 13 13 13 13 14 14 14 15 15 14 14 14 14 14 14 14 14 14 14 14 14 14 14 14 14 15 15 15 15 15 15 15 15 15 15 15 16 16 16 16 16 16 16 15 15 14
9 10 11 12 12 12 12 13 13 14 15 15 14 14 13 14 14 14 14 14 14 14 14 14 14 14 14 15 14 14 14 15 14 15 15 15 15 15 15 15 15 15 15 15 15 15 15 14 14
9 10 11 11 10 10 11 12 12 13 14 13 13 13 13 13 13 14 14 14 14 14 14 14 14 14 14 14 15 15 15 15 15 15 15 15 15 15 15 15 15 15 15 15 15 14 14 14 14
9 10 10 10 9 10 10 11 12 12 12 12 12 12 12 13 13 13 14 14 14 14 14 14 14 14 14 14 15 15 15 15 15 15 15 15 15 15 15 15 15 15 15 15 14 14 14 13 13
9 9 9 9 9 9 10 11 11 12 11 12 12 12 12 12 13 13 13 13 14 14 14 14 14 14 14 14 15 15 15 15 15 15 15 15 15 15 15 15 15 14 14 14 14 13 13 13 13
8 9 9 9 9 10 10 10 11 11 11 11 12 12 12 12 12 12 13 13 13 14 14 14 14 14 14 14 14 15 15 15 15 15 15 15 15 15 15 14 14 14 14 14 14 13 13 13 13
8 8 8 10 10 10 10 10 12 11 11 11 11 12 12 12 12 12 12 13 13 13 13 13 14 14 14 14 14 14 14 15 15 15 15 15 14 14 14 14 14 14 14 14 14 13 13 13 13
8 8 9 9 10 10 10 10 12 11 11 11 12 11 11 11 12 12 12 12 12 13 13 13 14 14 14 14 14 14 14 14 14 14 14 14 14 14 14 14 14 14 14 14 14 13 13 13 13
8 8 9 9 10 10 10 10 11 11 11 12 12 11 12 12 12 12 12 12 12 12 13 13 13 14 14 14 14 14 14 14 14 14 14 14 14 14 14 14 14 13 13 13 13 13 13 13 13
8 8 8 9 10 9 10 11 11 11 12 12 12 12 12 12 12 12 12 12 12 12 13 13 13 13 13 13 14 13 14 14 14 14 14 14 14 14 14 14 14 13 13 13 13 13 13 13 13
8 8 8 9 10 10 10 11 12 12 12 12 12 12 12 12 12 12 12 12 12 12 12 13 13 13 13 14 14 14 14 14 14 14 14 14 14 14 14 14 13 13 13 13 13 13 13 13 13
8 8 8 9 9 10 10 11 12 12 12 12 12 12 12 12 12 12 12 12 12 12 12 13 13 13 13 13 13 13 13 13 13 13 13 14 14 14 13 13 13 13 13 13 13 13 13 13 13
8 9 9 9 9 10 11 11 12 12 12 13 12 12 11 11 11 12 12 12 12 12 12 13 13 13 13 13 13 13 13 13 13 13 13 13 13 13 13 13 13 13 13 13 13 13 13 12 12
8 9 9 9 10 10 11 11 12 12 12 12 13 12 11 11 11 11 12 12 12 12 12 13 13 13 13 13 13 13 13 13 13 13 13 13 13 13 13 13 13 13 13 13 13 13 12 12 12
9 9 9 10 10 10 10 11 11 11 11 12 12 11 11 10 11 11 11 12 12 12 12 12 12 13 13 13 13 13 13 13 13 12 12 13 13 13 13 13 12 12 12 12 12 12 12 12 12
9 9 10 10 10 10 11 11 11 11 11 11 11 11 10 10 10 10 11 11 11 12 12 12 12 12 12 12 12 12 12 12 12 12 12 12 12 12 12 12 12 12 12 12 12 12 12 12 12
9 9 10 10 11 11 10 11 11 10 10 10 10 10 10 10 10 10 10 11 11 11 12 12 12 12 12 12 12 12 12 12 12 12 12 12 12 12 12 12 12 12 12 12 12 12 12 12 11
9 9 9 10 10 11 11 11 11 11 11 11 10 10 9 9 9 10 10 11 11 11 11 11 12 12 12 12 12 12 12 12 12 12 11 11 11 12 11 11 11 11 11 11 11 11 11 11 11
9 9 9 10 10 11 11 11 10 10 10 10 10 9 9 8 9 9 10 10 11 11 11 11 11 11 12 12 11 11 11 11 11 11 11 11 11 11 11 11 11 11 11 11 11 11 11 10 10
9 9 9 10 10 11 11 11 10 10 10 10 9 8 8 8 8 8 9 10 10 10 11 11 11 11 11 11 11 11 11 11 11 11 11 11 11 11 11 11 10 10 10 10 10 10 10 10 10
8 9 9 10 9 10 11 10 9 9 9 9 9 8 7 7 7 8 8 9 9 10 10 10 10 10 11 11 11 11 11 11 11 11 10 10 10 10 10 10 10 10 10 10 10 10 9 9 9
Wind_Speed
6 5 2 3 7 12 25 24 19 17 16 14 10 9 10 11 7 2 4 10 15 18 21 23 21 20 19 17 15 15 15 16 17 18 19 19 20 19 19 19 19 18 18 17 17 16 15 14 14
5 2 3 6 12 20 23 23 21 18 14 10 10 10 9 8 2 3 5 12 16 18 20 21 22 20 19 18 16 16 16 16 17 18 18 19 20 19 19 18 18 18 17 17 16 15 14 14 13
4 4 5 7 17 24 23 19 18 16 13 10 10 9 8 6 4 5 7 14 17 18 19 21 22 21 20 18 17 16 16 16 17 18 18 19 19 19 19 18 18 17 17 16 15 14 13 13 12
3 4 6 12 25 26 23 17 13 14 14 12 11 8 5 3 4 5 12 16 18 17 18 21 21 21 20 19 18 17 16 17 17 18 18 18 19 19 18 18 18 17 16 15 14 13 12 12 11
4 5 11 17 26 25 21 18 14 15 15 13 13 13 8 4 5 9 14 16 18 17 17 21 21 21 20 19 18 17 17 17 17 17 18 18 18 18 18 18 17 16 15 14 13 12 11 11 10
5 6 13 21 24 23 21 19 16 17 16 14 12 13 10 6 9 12 13 15 16 16 16 19 20 20 19 18 18 17 17 17 17 17 18 18 18 18 17 17 16 15 14 13 12 11 10 10 9
7 10 18 22 21 22 20 18 19 19 20 17 12 13 10 9 10 13 12 13 14 15 15 16 19 19 18 17 17 17 17 17 16 17 17 17 17 17 16 15 15 14 13 12 11 10 9 8 8
6 7 16 19 20 21 17 16 18 20 20 14 12 12 11 9 11 12 12 11 13 13 14 14 16 18 18 17 17 16 17 17 16 16 17 17 16 15 14 14 13 12 11 11 9 8 8 7 6
5 9 17 18 18 16 14 15 15 14 16 14 12 11 7 8 12 13 12 10 11 13 12 13 14 15 16 16 17 17 16 16 17 16 18 16 14 14 13 12 12 11 10 9 8 7 6 6 6
7 12 19 14 13 12 12 15 13 13 17 15 12 8 6 10 14 16 15 15 13 14 13 12 13 14 15 14 16 15 15 16 15 14 15 12 11 10 10 12 10 10 9 8 7 6 6 5 4
7 12 13 12 11 11 12 14 12 14 16 16 12 9 8 11 14 15 15 15 13 13 13 13 12 13 14 12 12 12 12 13 13 14 14 11 10 10 10 9 9 9 8 7 7 7 5 3 2
9 12 12 10 9 10 13 12 12 14 15 11 9 7 9 12 14 15 16 15 13 12 13 14 13 12 13 13 11 11 10 10 10 12 13 11 8 8 8 7 8 7 7 6 6 4 4 4 4
12 10 10 11 10 11 12 13 13 14 12 10 8 7 9 12 12 13 13 13 14 14 14 15 14 13 12 12 10 10 10 10 11 11 12 11 8 7 7 7 7 6 6 6 5 5 4 4 3
7 8 9 10 11 11 11 13 12 13 11 11 11 11 10 11 12 11 12 12 14 15 14 14 14 14 13 12 10 10 10 10 11 10 11 11 9 8 7 6 6 6 6 5 5 4 4 3 3
6 8 9 10 10 8 7 12 13 12 10 12 13 12 10 9 10 11 12 13 13 12 13 14 14 14 14 13 12 10 10 11 10 10 12 12 10 9 7 6 6 6 6 6 5 4 4 3 3
5 6 6 5 6 7 8 12 9 8 10 12 11 10 9 9 10 10 10 10 10 10 11 13 11 13 14 12 11 9 10 11 10 10 11 12 12 10 8 6 6 6 6 5 4 4 4 4 4
5 6 7 6 5 5 8 10 7 6 9 10 9 8 8 8 7 8 10 10 10 11 10 11 11 12 13 12 10 9 9 9 9 10 10 11 12 11 9 7 6 7 5 5 4 4 4 4 4
5 6 6 6 4 5 8 9 7 6 8 8 8 7 7 8 7 8 8 10 11 11 10 10 11 11 11 10 8 7 8 8 8 9 10 12 11 11 9 7 7 7 6 5 5 5 4 4 3
6 7 7 8 6 5 8 8 6 6 8 9 7 7 7 7 6 7 8 8 9 10 11 12 13 12 10 9 9 8 8 8 8 8 10 12 11 11 9 6 7 6 6 6 6 5 5 4 3
7 6 6 6 5 5 6 7 6 5 6 7 7 6 6 6 6 7 8 9 10 10 11 13 13 12 12 9 8 6 7 6 7 7 9 11 11 11 9 8 6 6 5 6 6 6 4 4 3
5 6 5 4 2 4 5 4 4 4 5 5 5 6 6 6 7 7 8 8 9 9 10 10 11 11 11 10 7 6 5 4 5 7 7 9 10 10 9 8 7 6 6 6 7 7 7 5 4
3 3 4 5 4 2 3 2 1 1 3 3 4 4 5 6 6 6 6 6 8 9 8 8 8 10 10 10 9 11 8 7 7 7 7 8 9 9 9 9 8 7 6 6 6 6 6 6 5
2 2 3 4 2 1 1 1 1 1 1 1 2 3 3 4 4 4 5 5 5 6 7 7 7 8 8 9 10 10 8 6 5 6 7 7 7 8 9 9 8 7 6 7 7 6 6 5 6
2 1 2 2 1 1 1 1 3 3 3 2 1 2 2 2 3 3 2 2 3 4 5 6 6 6 6 7 8 9 9 8 8 8 8 7 5 6 8 8 8 8 7 7 7 7 7 6 6
2 2 1 2 1 1 1 1 3 6 6 4 3 3 3 3 4 4 3 2 2 3 4 4 6 6 6 8 8 9 9 9 10 9 9 8 7 6 8 8 8 7 7 7 7 6 6 6 6
1 2 2 1 2 2 1 3 4 7 6 5 5 6 6 6 5 5 4 3 2 2 2 3 5 5 5 6 6 7 8 7 7 8 8 8 7 7 8 8 8 8 8 7 6 5 6 5 5
1 1 2 1 1 2 3 3 5 8 8 9 9 9 9 8 7 6 6 5 4 3 2 1 3 3 3 4 4 6 7 7 7 7 7 6 6 6 9 8 8 7 7 7 7 5 6 5 5
1 1 1 0 1 3 4 3 3 6 7 9 10 10 9 8 8 7 6 6 5 4 3 2 1 2 2 3 3 3 5 6 6 6 7 8 8 8 9 9 8 8 7 7 7 6 6 7 6
1 1 1 1 2 1 3 3 4 4 5 7 9 10 10 9 8 7 6 6 5 5 4 3 3 2 1 1 2 2 3 4 5 6 7 7 8 9 10 9 9 9 8 7 7 6 7 7 6
2 2 1 1 2 2 3 4 4 4 6 7 9 9 9 9 8 8 7 7 6 6 5 5 4 3 2 1 1 2 2 3 4 5 6 7 8 9 9 9 9 9 9 8 8 8 8 8 7
Wind_Direction
295 300 267 219 218 226 234 231 230 227 226 224 223 222 224 219 218 218 93 158 158 159 157 155 154 153 151 148 147 147 147 148 149 147 144 143 139 136 133 130 127 125 123 119 114 109 107 103 99
285 261 220 216 223 227 231 229 226 224 223 219 219 223 222 223 231 104 138 154 157 158 157 158 153 153 151 149 148 146 147 148 148 145 143 140 137 135 133 130 128 127 123 119 114 111 109 106 102
261 216 215 219 227 229 231 225 228 226 224 220 218 223 228 218 175 153 151 156 157 158 158 152 154 154 151 150 149 147 148 147 146 144 142 140 137 135 133 131 129 126 123 120 117 114 111 108 104
220 200 220 230 232 231 237 235 225 227 225 225 226 218 212 201 165 149 150 158 157 157 158 153 156 155 152 153 152 150 149 147 144 144 142 140 137 135 133 131 129 126 125 124 122 120 116 112 108
214 214 222 232 236 235 235 237 230 229 227 225 224 228 214 187 151 144 155 162 159 157 157 157 158 155 154 156 154 153 152 148 145 143 142 140 137 136 134 132 131 130 130 128 126 125 122 118 113
208 217 227 234 239 236 233 231 233 235 236 233 229 235 232 185 160 155 160 165 161 157 156 157 160 157 156 158 156 154 152 149 146 144 142 141 139 138 137 137 136 135 134 131 128 126 124 121 117
219 221 235 238 244 240 232 229 231 234 236 233 232 237 228 191 168 156 162 166 163 158 157 158 163 161 158 157 157 155 152 148 145 145 142 139 137 138 139 140 140 139 136 133 130 127 125 122 119
229 229 239 236 242 244 237 233 233 235 239 239 236 234 226 191 164 159 158 168 166 162 158 161 166 166 165 162 157 155 151 147 144 141 136 134 135 138 141 145 141 140 138 134 132 129 127 124 123
218 229 235 234 237 246 243 236 234 236 241 239 237 243 246 184 167 164 162 171 174 167 163 165 168 168 166 163 158 156 150 145 143 140 137 143 149 148 150 142 139 140 138 136 135 133 130 134 136
212 231 237 240 244 253 253 243 237 231 230 234 233 242 228 184 177 177 175 174 177 175 168 170 172 170 166 161 162 165 161 159 162 159 157 161 156 152 148 137 139 138 138 140 139 139 155 188 170
221 237 246 249 251 255 258 251 241 237 230 229 225 223 205 192 187 184 183 179 178 180 174 176 173 174 169 164 166 167 165 166 169 167 167 163 157 153 156 157 156 158 162 164 156 178 186 198 195
241 245 250 255 258 254 257 255 244 238 241 237 228 223 209 199 199 191 188 187 182 185 182 183 178 176 176 169 168 169 168 168 169 171 171 169 166 168 167 171 170 173 178 177 187 198 190 203 210
243 254 257 258 260 255 260 258 251 248 254 251 237 217 215 209 205 198 190 190 185 190 189 187 182 180 180 174 171 173 172 173 171 171 176 177 174 173 172 174 177 183 182 187 195 204 202 215 224
255 259 266 266 260 254 253 261 251 248 247 236 227 219 216 215 202 188 191 193 191 192 190 187 186 185 184 180 176 175 175 175 175 176 180 182 181 177 177 179 183 185 190 194 202 208 217 227 238
267 267 272 264 255 246 242 256 245 253 239 224 224 223 224 214 204 191 194 198 195 192 190 190 185 186 187 185 181 178 177 176 179 181 184 187 187 185 186 189 190 191 191 196 207 212 228 237 246
259 253 250 258 246 232 215 247 248 242 220 217 219 218 218 212 206 199 195 200 199 194 193 192 187 187 188 184 182 180 183 180 182 185 188 191 192 192 194 195 197 193 193 201 208 219 226 232 243
234 241 251 277 247 229 217 242 249 236 214 213 212 214 213 210 212 204 200 202 202 200 198 196 190 190 188 182 181 180 182 184 182 185 191 194 195 197 199 201 199 194 198 203 205 219 229 235 242
235 245 262 267 247 228 224 236 243 232 220 221 219 215 211 210 216 209 204 205 205 202 200 202 193 192 189 178 175 177 184 186 185 188 191 192 194 196 198 199 199 195 199 202 205 209 219 240 249
251 248 260 278 267 240 232 233 236 229 224 221 217 213 209 213 221 209 203 206 206 206 204 204 197 194 190 182 179 181 187 188 188 189 190 192 192 191 192 193 196 197 203 205 207 211 216 225 239
241 248 268 279 257 233 230 241 242 233 234 226 214 211 209 209 217 209 203 203 205 208 208 208 200 194 193 190 182 182 180 187 188 183 187 191 190 188 187 189 190 194 203 207 208 209 214 214 220
252 251 253 268 273 244 231 242 244 236 233 224 217 220 218 207 206 205 202 207 204 210 213 214 206 197 195 187 175 167 165 166 179 184 187 190 186 185 184 184 185 191 201 207 208 208 214 214 210
262 258 245 245 220 204 225 207 232 212 204 201 201 203 214 206 200 199 193 196 200 206 209 206 205 197 194 190 187 187 191 196 197 189 188 186 187 187 186 185 185 191 197 204 206 210 215 221 216
257 285 245 235 214 172 262 192 87 90 151 164 172 177 196 199 195 197 191 191 197 201 202 195 197 192 187 191 196 197 199 200 185 180 184 187 187 187 186 185 184 189 195 200 198 199 206 219 225
238 246 242 240 213 118 325 189 76 37 357 343 41 130 150 151 144 143 152 163 174 177 184 185 187 193 195 196 201 202 202 195 185 188 191 192 188 190 189 183 185 188 194 193 193 195 199 208 215
244 247 195 171 144 80 9 89 55 7 357 351 21 61 94 107 103 110 119 136 148 152 153 175 183 181 188 197 205 209 211 205 201 200 201 197 194 197 193 185 186 187 190 187 184 187 190 199 202
267 298 324 50 110 101 61 66 46 21 25 37 55 68 77 81 82 85 88 83 91 121 149 176 178 175 185 197 205 210 212 213 211 205 203 204 202 196 185 185 183 181 179 176 177 177 179 184 191
227 318 325 10 76 103 88 81 65 44 49 51 57 61 62 63 67 68 66 65 63 68 86 173 178 177 182 196 202 210 210 210 215 212 208 205 200 185 178 179 178 174 172 172 170 178 177 176 184
317 305 273 309 79 100 92 66 30 24 35 44 50 50 51 55 60 60 53 51 48 45 48 53 116 154 176 189 191 199 201 206 207 206 205 197 190 180 176 178 175 171 170 170 173 172 175 175 177
10 31 16 32 350 70 108 75 16 26 40 50 53 51 51 51 50 48 46 43 42 41 38 37 43 67 110 177 187 186 196 203 203 206 203 193 184 179 180 177 175 173 172 175 176 178 176 179 176
310 343 331 344 59 43 94 76 30 48 55 54 54 49 50 51 49 47 47 44 41 35 29 24 19 22 16 349 219 203 198 199 200 198 193 186 179 175 176 176 175 175 177 179 180 179 181 182 182
Height
1511 1513 1516 1519 1518 1510 1496 1488 1487 1490 1491 1495 1496 1497 1494 1494 1497 1501 1501 1500 1502 1506 1510 1512 1516 1519 1521 1523 1524 1526 1528 1530 1531 1533 1535 1537 1539 1541 1542 1544 1545 1546 1547 1548 1549 1549 1550 1550 1551
1510 1512 1516 1516 1509 1500 1489 1486 1487 1490 1493 1496 1497 1496 1495 1495 1498 1498 1497 1499 1502 1506 1510 1512 1515 1518 1521 1523 1525 1527 1529 1530 1532 1534 1536 1538 1540 1541 1543 1545 1546 1547 1549 1549 1550 1551 1552 1552 1552
1508 1510 1514 1508 1498 1489 1484 1483 1486 1490 1494 1495 1495 1495 1494 1495 1497 1497 1497 1499 1503 1507 1510 1512 1515 1518 1521 1523 1525 1527 1529 1531 1533 1535 1537 1539 1541 1542 1544 1546 1547 1549 1550 1551 1552 1553 1553 1554 1554
1508 1510 1510 1503 1489 1484 1484 1484 1487 1490 1492 1493 1493 1493 1494 1496 1496 1496 1497 1500 1503 1507 1510 1512 1515 1518 1521 1523 1526 1528 1530 1532 1534 1536 1538 1540 1542 1543 1545 1547 1548 1550 1551 1552 1553 1554 1555 1555 1555
1505 1506 1502 1494 1486 1483 1483 1486 1488 1489 1490 1491 1491 1490 1492 1494 1493 1495 1497 1500 1503 1506 1510 1512 1515 1518 1521 1523 1526 1528 1530 1533 1535 1537 1539 1541 1542 1544 1546 1548 1549 1551 1552 1553 1554 1555 1556 1556 1557
1504 1501 1495 1486 1482 1481 1482 1486 1488 1488 1487 1488 1489 1488 1489 1492 1492 1494 1497 1500 1503 1506 1509 1512 1515 1518 1521 1523 1526 1528 1531 1533 1535 1537 1539 1541 1543 1545 1547 1549 1550 1552 1553 1554 1555 1556 1557 1557 1558
1500 1496 1487 1482 1480 1478 1480 1484 1485 1485 1485 1486 1487 1487 1488 1490 1491 1493 1496 1499 1503 1505 1508 1511 1515 1518 1521 1523 1526 1529 1531 1533 1536 1538 1540 1542 1544 1546 1548 1549 1551 1552 1554 1555 1556 1557 1558 1558 1559
1497 1495 1486 1481 1481 1478 1479 1481 1482 1483 1483 1485 1486 1485 1486 1488 1489 1492 1495 1499 1502 1504 1507 1510 1514 1517 1520 1523 1526 1528 1531 1534 1536 1538 1540 1542 1544 1546 1548 1550 1552 1553 1554 1555 1557 1557 1558 1559 1559
1495 1494 1483 1479 1479 1477 1478 1479 1480 1482 1482 1482 1483 1484 1484 1486 1488 1490 1493 1497 1500 1503 1506 1509 1513 1516 1519 1522 1525 1528 1531 1533 1536 1538 1540 1542 1545 1547 1549 1550 1552 1553 1555 1556 1557 1558 1558 1559 1559
1492 1486 1478 1477 1478 1478 1478 1478 1478 1479 1478 1479 1481 1481 1482 1484 1486 1488 1490 1493 1497 1501 1504 1507 1511 1514 1518 1521 1524 1527 1530 1533 1535 1538 1540 1542 1545 1547 1548 1550 1552 1553 1555 1556 1557 1558 1558 1559 1559
1486 1481 1478 1478 1479 1479 1479 1477 1477 1476 1474 1476 1477 1479 1480 1482 1484 1485 1488 1491 1494 1498 1501 1505 1509 1512 1516 1519 1522 1526 1529 1531 1534 1537 1539 1541 1544 1546 1548 1550 1552 1553 1554 1556 1556 1557 1558 1559 1559
1484 1479 1478 1478 1478 1479 1477 1476 1475 1473 1473 1474 1475 1475 1477 1479 1482 1483 1485 1488 1492 1495 1499 1503 1507 1510 1514 1517 1520 1524 1527 1530 1533 1535 1538 1540 1543 1545 1547 1549 1551 1552 1554 1555 1556 1557 1557 1558 1558
1481 1478 1477 1477 1477 1477 1476 1474 1472 1471 1472 1472 1472 1473 1475 1476 1478 1480 1483 1486 1488 1493 1497 1500 1504 1507 1511 1515 1518 1522 1525 1528 1531 1534 1537 1539 1542 1544 1546 1548 1550 1551 1553 1554 1555 1556 1556 1557 1557
1478 1477 1476 1475 1474 1474 1473 1471 1470 1468 1469 1469 1470 1471 1473 1474 1475 1477 1480 1483 1486 1490 1494 1497 1501 1505 1509 1512 1516 1520 1523 1526 1530 1532 1535 1538 1540 1542 1544 1546 1548 1550 1551 1552 1553 1555 1555 1556 1556
1478 1476 1473 1471 1471 1470 1471 1468 1465 1466 1466 1467 1468 1469 1470 1471 1474 1475 1477 1480 1483 1487 1491 1495 1499 1503 1507 1510 1514 1518 1521 1524 1527 1530 1533 1536 1539 1541 1543 1545 1547 1548 1549 1550 1552 1553 1553 1553 1554
1477 1474 1470 1467 1467 1467 1471 1464 1461 1463 1464 1464 1465 1466 1467 1469 1472 1473 1476 1479 1481 1484 1488 1493 1496 1500 1504 1508 1511 1515 1519 1522 1525 1528 1531 1534 1537 1539 1541 1543 1545 1546 1547 1548 1550 1551 1551 1552 1552
1474 1470 1465 1464 1464 1464 1465 1461 1459 1460 1461 1462 1463 1463 1465 1467 1469 1471 1473 1477 1479 1482 1486 1490 1493 1497 1501 1505 1509 1513 1517 1520 1523 1526 1529 1532 1534 1537 1539 1541 1543 1544 1545 1546 1547 1548 1549 1550 1550
1468 1466 1464 1463 1462 1462 1460 1458 1456 1457 1458 1459 1460 1461 1462 1464 1467 1470 1472 1474 1477 1480 1483 1487 1490 1494 1498 1502 1506 1510 1514 1517 1520 1523 1526 1529 1532 1534 1537 1538 1540 1541 1543 1544 1545 1546 1547 1547 1547
1467 1466 1464 1461 1460 1461 1457 1454 1453 1454 1455 1456 1457 1459 1460 1462 1465 1468 1470 1472 1475 1478 1481 1484 1487 1491 1495 1499 1502 1506 1510 1513 1517 1520 1523 1526 1529 1531 1533 1535 1537 1538 1540 1541 1542 1543 1544 1544 1544
1467 1464 1462 1460 1458 1458 1454 1451 1450 1451 1452 1453 1454 1456 1458 1461 1464 1466 1468 1470 1473 1475 1479 1482 1485 1489 1492 1496 1500 1503 1507 1510 1513 1516 1519 1522 1525 1528 1529 1531 1533 1535 1537 1538 1539 1540 1541 1541 1542
1464 1462 1460 1460 1458 1456 1453 1450 1448 1448 1450 1451 1453 1454 1456 1458 1460 1463 1466 1467 1470 1473 1476 1479 1481 1485 1489 1493 1497 1500 1504 1507 1509 1512 1515 1518 1521 1524 1526 1528 1530 1532 1534 1535 1536 1537 1538 1538 1539
1462 1461 1460 1459 1457 1454 1452 1449 1445 1446 1447 1448 1450 1452 1454 1456 1458 1460 1463 1465 1467 1471 1473 1476 1479 1482 1486 1490 1493 1496 1499 1502 1505 1509 1511 1514 1517 1519 1521 1523 1525 1528 1530 1531 1532 1534 1534 1535 1535
1462 1461 1460 1457 1454 1452 1449 1447 1446 1445 1446 1447 1449 1451 1453 1455 1456 1458 1461 1463 1465 1468 1471 1474 1477 1479 1483 1486 1489 1493 1496 1499 1502 1505 1507 1510 1512 1514 1516 1519 1521 1523 1525 1527 1528 1529 1530 1531 1531
1463 1462 1458 1455 1452 1453 1451 1447 1449 1448 1449 1448 1449 1451 1453 1454 1455 1457 1460 1462 1464 1466 1469 1471 1474 1476 1479 1482 1485 1488 1492 1495 1498 1500 1502 1505 1507 1509 1511 1513 1516 1519 1521 1522 1524 1525 1526 1526 1526
1463 1460 1455 1453 1451 1451 1451 1449 1454 1453 1453 1452 1451 1451 1452 1454 1456 1457 1459 1461 1463 1464 1466 1469 1472 1474 1476 1480 1482 1484 1487 1490 1492 1495 1498 1500 1502 1504 1506 1508 1510 1513 1515 1517 1518 1519 1520 1521 1521
1462 1461 1456 1451 1449 1450 1452 1451 1456 1456 1455 1454 1453 1453 1454 1455 1457 1458 1460 1461 1463 1464 1466 1468 1470 1472 1474 1477 1479 1481 1484 1486 1488 1490 1493 1495 1497 1499 1501 1503 1505 1507 1510 1512 1513 1514 1515 1516 1517
1461 1461 1461 1456 1452 1449 1451 1455 1456 1457 1456 1455 1455 1455 1456 1457 1458 1459 1460 1462 1463 1464 1465 1467 1469 1471 1472 1474 1476 1478 1480 1481 1484 1486 1488 1490 1492 1494 1496 1498 1499 1502 1504 1507 1508 1509 1510 1511 1512
1465 1463 1459 1457 1453 1450 1454 1455 1459 1460 1459 1459 1458 1459 1459 1459 1460 1461 1462 1462 1464 1465 1466 1467 1468 1470 1471 1473 1474 1475 1476 1478 1481 1482 1484 1486 1487 1489 1491 1493 1495 1497 1499 1501 1503 1504 1505 1506 1506
1464 1463 1461 1458 1455 1450 1454 1462 1465 1464 1463 1462 1462 1463 1463 1463 1463 1463 1463 1464 1465 1465 1466 1467 1468 1469 1470 1471 1472 1473 1474 1476 1477 1478 1480 1481 1483 1484 1486 1488 1490 1492 1494 1496 1498 1499 1500 1501 1501
1466 1463 1461 1458 1460 1457 1455 1469 1468 1467 1467 1466 1466 1466 1466 1466 1466 1466 1466 1466 1466 1466 1467 1467 1467 1468 1469 1470 1470 1471 1472 1473 1474 1475 1476 1477 1478 1479 1481 1484 1486 1488 1490 1492 1493 1495 1495 1496 1497